Albany, NY

9:12 AM EST on February 24, 2018 (GMT -0500)
Albany International

Weather History for KALB - February, 2012

Change the Weather History Date:

Sunday, February 5, 2012

  Actual Average Record
Temperature  
Mean Temperature 26 °F 24 °F  
Max Temperature 34 °F 32 °F 59 °F (1890)
Min Temperature 17 °F 15 °F -15 °F (1918)
Degree Days  
Heating Degree Days 39 41  
Month to date heating degree days 156 207  
Since 1 July heating degree days 3287 4058  
Cooling Degree Days 0 0  
Month to date cooling degree days 0 0  
Year to date cooling degree days 0 0  
Moisture  
Dew Point 13 °F    
Average Humidity 61    
Maximum Humidity 80    
Minimum Humidity 41    
Precipitation  
Precipitation 0.00 in 0.08 in 1.66 in (1920)
Month to date precipitation 0.02 0.39  
Year to date precipitation 2.28 2.98  
Snow  
Snow 0.00 in 0.50 in 10.40 in (2014)
Month to date snowfall T 2.4  
Since 1 July snowfall 13.6 37.1  
Snow Depth 0.00 in    
Sea Level Pressure  
Sea Level Pressure 30.17 in    
Wind  
Wind Speed 5 mph (NW)    
Max Wind Speed 13 mph    
Max Gust Speed 16 mph    
Visibility 10 miles    
Events      
T = Trace of Precipitation, MM = Missing Value Source: NWS Daily Summary

Daily Weather History Graph

Daily Weather History Graph

Search for Another Location

Airport or City:

Trip Planner

Search our weather history database for the weather conditions in past years. The results will help you decide how hot, cold, wet, or windy it might be!

Date:

Astronomy

Feb. 05, 2012 Rise Set
Actual Time 7:05 AM EST 5:13 PM EST
Civil Twilight 6:36 AM EST 5:42 PM EST
Nautical Twilight 6:02 AM EST 6:16 PM EST
Astronomical Twilight 5:29 AM EST 6:49 PM EST
Moon 3:07 PM EST (2/5) 5:16 AM EST (2/5)
Length of Visible Light 11h 06m
Length of Day
10h 07m
Waxing Gibbous, 94% of the Moon is Illuminated
Feb 5
Waxing Gibbous
Feb 7
Full
Feb 14
Last Quarter
Feb 21
New
Feb 29
First Quarter

Hourly Weather History & Observations

Time (EST) Temp. Windchill Dew Point Humidity Pressure Visibility Wind Dir Wind Speed Gust Speed Precip Events Conditions
12:51 AM 21.9 °F 12.5 °F 12.0 °F 66% 30.19 in 10.0 mi North 8.1 mph - N/A   Clear
1:51 AM 21.0 °F 13.4 °F 10.9 °F 65% 30.18 in 10.0 mi North 5.8 mph - N/A   Clear
2:51 AM 19.9 °F - 10.9 °F 68% 30.18 in 10.0 mi Calm Calm - N/A   Clear
3:51 AM 19.0 °F 13.9 °F 10.9 °F 71% 30.17 in 10.0 mi North 3.5 mph - N/A   Clear
4:51 AM 19.0 °F 13.9 °F 10.9 °F 71% 30.19 in 10.0 mi North 3.5 mph - N/A   Clear
5:51 AM 18.0 °F 12.7 °F 10.9 °F 74% 30.19 in 10.0 mi North 3.5 mph - N/A   Clear
6:51 AM 17.1 °F 8.7 °F 12.0 °F 81% 30.21 in 10.0 mi NNW 5.8 mph - N/A   Partly Cloudy
7:51 AM 19.0 °F 13.9 °F 12.0 °F 74% 30.23 in 10.0 mi NNW 3.5 mph - N/A   Scattered Clouds
8:51 AM 21.0 °F 14.6 °F 12.9 °F 71% 30.23 in 10.0 mi NNW 4.6 mph - N/A   Partly Cloudy
9:51 AM 24.1 °F 17.0 °F 12.9 °F 62% 30.23 in 10.0 mi NNW 5.8 mph - N/A   Scattered Clouds
10:51 AM 27.0 °F - 12.0 °F 53% 30.22 in 10.0 mi Calm Calm - N/A   Scattered Clouds
11:51 AM 28.0 °F - 12.9 °F 53% 30.19 in 10.0 mi Calm Calm - N/A   Partly Cloudy
12:51 PM 30.9 °F 25.2 °F 14.0 °F 50% 30.18 in 10.0 mi North 5.8 mph - N/A   Partly Cloudy
1:51 PM 32.0 °F 22.5 °F 14.0 °F 48% 30.16 in 10.0 mi WNW 12.7 mph - N/A   Partly Cloudy
2:51 PM 34.0 °F 27.2 °F 14.0 °F 44% 30.14 in 10.0 mi NNW 8.1 mph - N/A   Partly Cloudy
3:51 PM 33.1 °F 26.1 °F 12.9 °F 43% 30.14 in 10.0 mi NNW 8.1 mph - N/A   Clear
4:51 PM 32.0 °F 26.4 °F 14.0 °F 48% 30.13 in 10.0 mi West 5.8 mph - N/A   Clear
5:51 PM 28.9 °F 23.9 °F 12.9 °F 51% 30.14 in 10.0 mi WSW 4.6 mph - N/A   Clear
6:51 PM 28.9 °F 21.9 °F 14.0 °F 54% 30.15 in 10.0 mi West 6.9 mph - N/A   Clear
7:51 PM 28.0 °F 20.0 °F 15.1 °F 58% 30.16 in 10.0 mi West 8.1 mph - N/A   Clear
8:51 PM 26.1 °F 20.5 °F 15.1 °F 63% 30.15 in 10.0 mi WSW 4.6 mph - N/A   Clear
9:51 PM 21.0 °F 16.2 °F 14.0 °F 74% 30.15 in 10.0 mi WSW 3.5 mph - N/A   Clear
10:51 PM 24.1 °F - 15.1 °F 69% 30.14 in 10.0 mi Calm Calm - N/A   Partly Cloudy
11:51 PM 21.9 °F - 16.0 °F 78% 30.14 in 10.0 mi Calm Calm - N/A   Scattered Clouds